Tracking 19279 objects as of 13-Nov-2018
HD Live streaming from Space Station
objects crossing your sky now

COSMOS 2145

Track COSMOS 2145 now!
10-day predictions
COSMOS 2145 is classified as:


NORAD ID: 21301
Int'l Code: 1991-033C
Perigee: 1,412.0 km
Apogee: 1,422.8 km
Inclination: 82.6 °
Period: 114.0 minutes
Semi major axis: 7788 km
RCS: 1.1428 m2 (large)
Launch date: May 16, 1991
Source: Commonwealth of Independent States (former USSR) (CIS)
Launch site: PLESETSK MISSILE AND SPACE COMPLEX (PKMTR)
aabbcc
Your satellite tracking list
Your tracking list is empty




NASA's NSSDC Master Catalog

Two Line Element Set (TLE):
1 21301U 91033C   18315.45018857  .00000005  00000-0 -32245-4 0  9995
2 21301  82.5649 282.9914 0006927 268.9513  91.0785 12.63078272267447
Source of the keplerian elements: AFSPC